Regional Weather Roundup
Issued by NWS

Home | Current Version | Previous Version | Text Only | Print | Product List | Glossary Off
Versions: 1 2 3 4 5 6 7 8 9 10 11 12 13 14 15 16 17 18 19 20 21 22 23 24 25 26 27 28 29 30 31 32 33 34 35 36 37 38 39 40 41 42 43 44 45 46 47 48 49 50

000
ASUS45 KTFX 221710
RWRMT
MONTANA REGIONAL WEATHER ROUNDUP
NATIONAL WEATHER SERVICE GREAT FALLS MT
1100 AM MDT FRI MAY 22 2015

NOTE: "FAIR" INDICATES FEW OR NO CLOUDS BELOW 12000 FEET WITH NO
SIGNIFICANT WEATHER AND/OR OBSTRUCTIONS TO VISIBILITY.

MTZ001>007-043-221800-
WEST OF THE DIVIDE

CITY           SKY/WX    TMP DP  RH WIND       PRES   REMARKS
KALISPELL      SUNNY     69  38  32 N6        29.91F
MISSOULA       SUNNY     61  44  53 CALM      29.93F
BUTTE          PTSUNNY   53  40  61 NE5       29.97F
MULLAN PASS    SUNNY     58  40  51 VRB3      30.00S
DEER LODGE       N/A     57  45  62 CALM      30.00F
EUREKA           N/A     64  34  32 CALM      29.93F
HAMILTON         N/A     61  46  59 N2        29.92F
LIBBY            N/A     68  39  34 NW3       29.90F
PLAINS           N/A     68  45  43 CALM      29.91
RONAN            N/A     67  44  43 CALM      29.97F
$$

MTZ008-052>055-221800-
SOUTHWEST MONTANA

CITY           SKY/WX    TMP DP  RH WIND       PRES   REMARKS
BOZEMAN        SUNNY     59  44  57 NW5       29.95F
DILLON         PTSUNNY   55  44  66 NW3       29.95F
W YELLOWSTONE  PTSUNNY   54  37  54 E7        29.99F
THREE FORKS      N/A     60  33  36 CALM      29.95F
TWIN BRIDGES     N/A     60  41  49 N3        29.95F
$$

MTZ009-010-012-014-046-048-049-054-221800-
EAST SLOPES AND CENTRAL MONTANA

CITY           SKY/WX    TMP DP  RH WIND       PRES   REMARKS
CUT BANK       SUNNY     61  38  42 E6        29.99S
GREAT FALLS    SUNNY     63  42  46 NW7       29.95F
MALMSTROM AFB  SUNNY     62  43  50 W5        29.95F
HELENA         SUNNY     62  45  53 VRB3      29.94F
CONRAD           N/A     62  43  49 NE8       30.01S
$$

MTZ011-013-016-021-045-047-050-051-221800-
NORTH CENTRAL MONTANA

CITY           SKY/WX    TMP DP  RH WIND       PRES   REMARKS
HAVRE          MOSUNNY   68  42  38 E17       29.97F
LEWISTOWN      SUNNY     62  44  51 E13       29.97S
N BAR RANCH    FAIR      57  43  58 E10       30.01S
CHINOOK          N/A     64  43  45 E12       29.99F
FORT BENTON      N/A     64  39  39 NE10      29.96F
$$

MTZ017>020-022>027-061-062-221800-
NORTHEAST MONTANA

CITY           SKY/WX    TMP DP  RH WIND       PRES   REMARKS
GLASGOW        SUNNY     68  35  29 E17G29    30.02F
JORDAN           N/A     66  42  41 SE18G26   29.99F
SIDNEY         SUNNY     72  36  26 SE16G26   30.09F
WOLF POINT     SUNNY     72  33  24 SE16G23   30.05F
MALTA            N/A     67  42  40 E15       29.98S
PLENTYWOOD       N/A     70  32  24 SE15G23   30.10F
POPLAR           N/A     70  28  21 SE23G31   30.07S
$$

MTZ028>42-056>058-221800-
SOUTHCENTRAL AND SOUTHEAST MONTANA

CITY           SKY/WX    TMP DP  RH WIND       PRES   REMARKS
BAKER          PTSUNNY   66  40  38 SE24G33   30.07S
BILLINGS       PTSUNNY   59  45  59 SE3       29.96S
LIVINGSTON     MOSUNNY   55  44  66 CALM      29.96F
MILES CITY     CLOUDY    66  44  45 SE21G26   30.00F
BIG TIMBER       N/A     54  43  66 N3        29.98S
EKALAKA          N/A     62  41  46 E16       30.04S
FORSYTH          N/A     66  45  45 SE17G26   29.96S
LAUREL           N/A     58  43  57 NE1       29.95S
ROUNDUP          N/A     60  43  53 CALM      29.89S
$$

REGIONAL REPORTS...DAKOTAS

CITY           SKY/WX    TMP DP  RH WIND       PRES   REMARKS
WILLISTON      SUNNY     72  32  23 SE13      30.11F
MINOT          SUNNY     73  34  23 S12       30.13S
DICKINSON      SUNNY     69  33  26 SE18G32   30.11S
BEACH          FAIR      66  32  28 SE23G32   30.09F
CROSBY         FAIR      72  32  23 SE5       30.12F
WATFORD CITY   FAIR      72  32  23 SE14G24   30.10S
BISMARCK       MOSUNNY   72  38  29 VRB5      30.16S
GRAND FORKS    SUNNY     71  38  29 SW8       30.16S
FARGO          SUNNY     69  37  30 CALM      30.19S
BUFFALO SD       N/A     62  41  46 SE15      30.02S
RAPID CITY     CLOUDY    58  45  62 S15       30.10S
$$

REGIONAL REPORTS...WYOMING/IDAHO/WASHINGTON

CITY           SKY/WX    TMP DP  RH WIND       PRES   REMARKS
GILLETTE       CLOUDY    57  43  59 SE22G32   30.02S
SHERIDAN       CLOUDY    57  45  64 SE21      29.96F
BUFFALO WY       N/A     55  45  68 SE14      30.00S
CODY           MOSUNNY   55  46  71 N6        29.97S
YELLOWSTONE LA   N/A     44  35  70 VRB5      30.05S
IDAHO FALLS    PTSUNNY   60  43  53 VRB5      29.93F
SALMON         PTSUNNY   59  45  58 N5        29.91F
BOISE          MOSUNNY   64  49  57 W6        29.90S
SPOKANE        PTSUNNY   70  51  51 S5        29.88S
$$

REGIONAL REPORTS...ALBERTA

CITY           SKY/WX    TMP DP  RH WIND       PRES   REMARKS
EDMONTON       MOSUNNY   73  32  21 SE7       29.99S
CALGARY        MOSUNNY   64  36  34 SE10      30.01S
LETHBRIDGE     MOSUNNY   63  37  39 VRB3      29.98F
MEDICINE HAT   MOSUNNY   72  27  18 E9        29.98F
$$

REGIONAL REPORTS...SASKATCHEWAN

CITY           SKY/WX    TMP DP  RH WIND       PRES   REMARKS
SWIFT CURRENT  SUNNY     70  30  23 SE23G29   30.07S
REGINA         MOSUNNY   73  37  27 VRB2      30.10S
SASKATOON      SUNNY     73  30  20 SW10G17   30.08F
$$


USA.gov is the U.S. government's official web portal to all federal, state and local government web resources and services.